Вернуться в каталог

GUANGCHUAN 01

АктивенСвязьVLEO
NORAD 62111·PAYLOAD·🇨🇳 China

Запущен Nov 27, 2024 с Jiuquan Satellite Launch Center

Loading…

Ближайшие Пролёты (ближайшие 24 часа)

TLE

СвежийSource: Space-Track

Эпоха: Sep 14, 2026, 21:14 UTC

1 62111U 24221A   26257.88484303  .00002250  00000-0  13735-3 0  9993
2 62111  49.9433  85.3591 0007076 300.6745  59.3507 15.14340350 99789

Отслеживайте GUANGCHUAN 01 в реальном времени с AllMySat

Download on the App Store